Location: *
(13.2257°S, 48.7193°W)
Time: 13:59:56
(UTC+00:00)

Ariane H10 - Pass Details

Date: 13 February 2026
Orbit: 466 x 35234 km, 7.2° (Epoch: 10 March)

Event Time Altitude Azimuth Distance (km) Brightness Sun altitude
Exits shadow 07:15:31 25° 49° (NE) 1,193 4.2 -27.9°
Drops below altitude 10° 07:16:53 10° 67° (ENE) 1,718 5.3 -27.6°
Sets 07:18:28 0° 75° (ENE) 2,481 6.4 -27.3°
